Station Historical Data
Daily Summary for March 7, 2012 Units:  English    Metric   Both
« Previous Day
Next Day »
Daily Weekly Monthly Yearly Custom
  High: Low: Average:
Temperature: 69.0 °F 48.4 °F 58.9 °F
Dew Point: 54.7 °F 30.9 °F 46.2 °F
Humidity: 80% 44% 63%
Wind Speed: 21.0mph 3.0mph 9.2mph
Wind Gust: 25.0mph - -
Wind- - SE
Pressure: 30.38 in 30.20 in -
Precipitation: 0.00 in    
Historical Graphs
 
 
Tabular Data for March 7, 2012
Time Temperature Dew Point Pressure Wind Wind Speed Wind Gust Humidity Rainfall Rate (Hourly) Conditions
00:00 52.1 °F 30.9 °F 30.35 in SE 4.0 mph 8.0 mph 44% 0.00 in
00:01 52.1 °F 31.4 °F 30.35 in SE 9.0 mph 9.0 mph 45% 0.00 in
00:06 52.1 °F 31.4 °F 30.35 in ESE 10.0 mph 10.0 mph 45% 0.00 in
00:11 51.9 °F 31.2 °F 30.35 in ESE 7.0 mph 9.0 mph 45% 0.00 in
00:16 51.9 °F 31.2 °F 30.35 in SE 6.0 mph 8.0 mph 45% 0.00 in
00:21 51.8 °F 31.1 °F 30.35 in SE 5.0 mph 11.0 mph 45% 0.00 in
00:26 51.9 °F 31.2 °F 30.35 in SE 9.0 mph 9.0 mph 45% 0.00 in
00:31 51.8 °F 31.1 °F 30.35 in SE 4.0 mph 8.0 mph 45% 0.00 in
00:36 51.7 °F 31.1 °F 30.35 in SE 10.0 mph 10.0 mph 45% 0.00 in
00:41 51.7 °F 31.1 °F 30.35 in SE 6.0 mph 9.0 mph 45% 0.00 in
00:46 51.6 °F 31.5 °F 30.35 in ESE 7.0 mph 8.0 mph 46% 0.00 in
00:51 51.5 °F 31.4 °F 30.35 in SE 5.0 mph 8.0 mph 46% 0.00 in
00:56 51.2 °F 31.7 °F 30.35 in SE 5.0 mph 7.0 mph 47% 0.00 in
01:01 51.2 °F 31.1 °F 30.35 in SE 8.0 mph 10.0 mph 46% 0.00 in
01:06 51.1 °F 31.6 °F 30.35 in SE 6.0 mph 8.0 mph 47% 0.00 in
01:11 51.1 °F 31.6 °F 30.35 in SE 8.0 mph 10.0 mph 47% 0.00 in
01:16 51.0 °F 31.5 °F 30.35 in SE 7.0 mph 8.0 mph 47% 0.00 in
01:21 51.0 °F 32.0 °F 30.35 in SE 5.0 mph 8.0 mph 48% 0.00 in
01:26 50.9 °F 31.9 °F 30.35 in SE 9.0 mph 10.0 mph 48% 0.00 in
01:31 50.9 °F 31.9 °F 30.35 in SE 6.0 mph 10.0 mph 48% 0.00 in
01:36 51.0 °F 32.0 °F 30.35 in SE 5.0 mph 10.0 mph 48% 0.00 in
01:41 50.9 °F 31.9 °F 30.35 in ESE 7.0 mph 10.0 mph 48% 0.00 in
01:46 50.9 °F 31.9 °F 30.35 in SE 6.0 mph 10.0 mph 48% 0.00 in
01:51 50.9 °F 31.9 °F 30.35 in SE 6.0 mph 11.0 mph 48% 0.00 in
01:56 50.7 °F 32.2 °F 30.35 in SE 8.0 mph 9.0 mph 49% 0.00 in
02:01 50.8 °F 31.8 °F 30.34 in SE 6.0 mph 10.0 mph 48% 0.00 in
02:06 50.7 °F 32.2 °F 30.34 in ESE 7.0 mph 10.0 mph 49% 0.00 in
02:11 50.5 °F 32.1 °F 30.34 in ESE 6.0 mph 8.0 mph 49% 0.00 in
02:16 50.2 °F 32.3 °F 30.34 in SE 5.0 mph 7.0 mph 50% 0.00 in
02:21 50.0 °F 32.1 °F 30.34 in ESE 6.0 mph 7.0 mph 50% 0.00 in
02:26 50.0 °F 32.6 °F 30.34 in SE 5.0 mph 8.0 mph 51% 0.00 in
02:31 49.9 °F 32.5 °F 30.34 in ESE 7.0 mph 7.0 mph 51% 0.00 in
02:36 50.0 °F 32.6 °F 30.34 in SE 5.0 mph 8.0 mph 51% 0.00 in
02:41 49.9 °F 32.5 °F 30.33 in SE 8.0 mph 8.0 mph 51% 0.00 in
02:47 49.9 °F 33.0 °F 30.34 in SE 6.0 mph 10.0 mph 52% 0.00 in
02:52 49.9 °F 32.5 °F 30.34 in SE 6.0 mph 10.0 mph 51% 0.00 in
02:57 49.8 °F 32.9 °F 30.34 in ESE 8.0 mph 9.0 mph 52% 0.00 in
03:02 49.6 °F 33.2 °F 30.33 in SE 7.0 mph 8.0 mph 53% 0.00 in
03:07 49.6 °F 33.2 °F 30.33 in SE 6.0 mph 11.0 mph 53% 0.00 in
03:12 49.7 °F 33.3 °F 30.34 in SSE 7.0 mph 11.0 mph 53% 0.00 in
03:17 49.8 °F 33.4 °F 30.33 in SE 8.0 mph 10.0 mph 53% 0.00 in
03:22 49.9 °F 33.5 °F 30.33 in ESE 9.0 mph 12.0 mph 53% 0.00 in
03:27 49.9 °F 33.5 °F 30.33 in SE 7.0 mph 10.0 mph 53% 0.00 in
03:32 49.9 °F 33.9 °F 30.33 in SE 8.0 mph 11.0 mph 54% 0.00 in
03:37 49.8 °F 33.8 °F 30.33 in ESE 7.0 mph 9.0 mph 54% 0.00 in
03:42 49.9 °F 34.4 °F 30.33 in SSE 6.0 mph 8.0 mph 55% 0.00 in
03:48 49.9 °F 34.4 °F 30.33 in SSE 6.0 mph 10.0 mph 55% 0.00 in
03:53 49.8 °F 34.3 °F 30.33 in SE 7.0 mph 12.0 mph 55% 0.00 in
03:58 49.8 °F 34.8 °F 30.33 in SE 9.0 mph 10.0 mph 56% 0.00 in
04:03 49.8 °F 34.8 °F 30.33 in ESE 7.0 mph 10.0 mph 56% 0.00 in
04:08 49.7 °F 34.7 °F 30.33 in SE 6.0 mph 10.0 mph 56% 0.00 in
04:13 49.5 °F 34.9 °F 30.34 in SE 6.0 mph 8.0 mph 57% 0.00 in
04:18 49.4 °F 35.3 °F 30.33 in SE 6.0 mph 8.0 mph 58% 0.00 in
04:23 49.3 °F 35.2 °F 30.33 in SE 6.0 mph 10.0 mph 58% 0.00 in
04:28 49.4 °F 35.3 °F 30.33 in SE 6.0 mph 11.0 mph 58% 0.00 in
04:33 49.1 °F 35.8 °F 30.33 in SE 10.0 mph 10.0 mph 60% 0.00 in
04:38 49.2 °F 35.9 °F 30.33 in SE 6.0 mph 10.0 mph 60% 0.00 in
04:43 49.2 °F 36.3 °F 30.33 in SE 7.0 mph 9.0 mph 61% 0.00 in
04:48 49.3 °F 36.4 °F 30.33 in ESE 6.0 mph 9.0 mph 61% 0.00 in
04:53 49.4 °F 36.5 °F 30.33 in SE 9.0 mph 12.0 mph 61% 0.00 in
04:58 49.3 °F 36.8 °F 30.33 in ESE 6.0 mph 7.0 mph 62% 0.00 in
05:03 49.4 °F 36.9 °F 30.33 in ESE 9.0 mph 11.0 mph 62% 0.00 in
05:08 49.4 °F 37.3 °F 30.33 in SE 8.0 mph 9.0 mph 63% 0.00 in
05:13 49.4 °F 37.8 °F 30.33 in SE 5.0 mph 11.0 mph 64% 0.00 in
05:18 49.4 °F 37.8 °F 30.33 in SE 6.0 mph 10.0 mph 64% 0.00 in
05:23 49.5 °F 38.2 °F 30.33 in ESE 8.0 mph 11.0 mph 65% 0.00 in
05:28 49.5 °F 38.2 °F 30.33 in SE 8.0 mph 11.0 mph 65% 0.00 in
05:33 49.6 °F 38.7 °F 30.33 in ESE 11.0 mph 11.0 mph 66% 0.00 in
05:38 49.6 °F 39.1 °F 30.33 in SE 7.0 mph 11.0 mph 67% 0.00 in
05:43 49.7 °F 39.6 °F 30.33 in ESE 12.0 mph 12.0 mph 68% 0.00 in
05:48 49.7 °F 39.6 °F 30.33 in SE 10.0 mph 11.0 mph 68% 0.00 in
05:53 49.8 °F 40.0 °F 30.33 in SE 7.0 mph 11.0 mph 69% 0.00 in
05:58 49.8 °F 40.0 °F 30.33 in SE 8.0 mph 11.0 mph 69% 0.00 in
06:03 49.7 °F 40.3 °F 30.33 in SE 6.0 mph 14.0 mph 70% 0.00 in
06:08 49.7 °F 40.7 °F 30.34 in ESE 7.0 mph 12.0 mph 71% 0.00 in
06:13 49.5 °F 40.5 °F 30.34 in SE 8.0 mph 11.0 mph 71% 0.00 in
06:18 49.3 °F 40.7 °F 30.34 in SE 7.0 mph 11.0 mph 72% 0.00 in
06:23 49.0 °F 40.4 °F 30.34 in East 10.0 mph 10.0 mph 72% 0.00 in
06:28 49.0 °F 40.7 °F 30.34 in ESE 9.0 mph 9.0 mph 73% 0.00 in
06:33 48.8 °F 40.9 °F 30.34 in ESE 8.0 mph 8.0 mph 74% 0.00 in
06:38 48.6 °F 40.7 °F 30.34 in ESE 6.0 mph 9.0 mph 74% 0.00 in
06:43 48.4 °F 40.8 °F 30.34 in SE 5.0 mph 8.0 mph 75% 0.00 in
06:49 48.5 °F 41.3 °F 30.35 in ESE 5.0 mph 9.0 mph 76% 0.00 in
06:54 48.7 °F 41.5 °F 30.35 in ESE 6.0 mph 10.0 mph 76% 0.00 in
06:59 48.8 °F 41.6 °F 30.35 in SE 6.0 mph 7.0 mph 76% 0.00 in
07:04 48.7 °F 41.8 °F 30.35 in ESE 6.0 mph 8.0 mph 77% 0.00 in
07:09 48.8 °F 41.9 °F 30.35 in ESE 7.0 mph 8.0 mph 77% 0.00 in
07:14 48.7 °F 41.8 °F 30.36 in SE 7.0 mph 9.0 mph 77% 0.00 in
07:19 48.7 °F 42.2 °F 30.36 in SE 4.0 mph 9.0 mph 78% 0.00 in
07:24 48.8 °F 42.6 °F 30.36 in SE 3.0 mph 8.0 mph 79% 0.00 in
07:29 49.0 °F 42.8 °F 30.36 in ESE 5.0 mph 9.0 mph 79% 0.00 in
07:34 49.2 °F 43.0 °F 30.36 in SE 6.0 mph 7.0 mph 79% 0.00 in
07:35 49.2 °F 43.0 °F 30.36 in SE 6.0 mph 7.0 mph 79% 0.00 in
07:40 49.4 °F 43.2 °F 30.36 in SE 7.0 mph 8.0 mph 79% 0.00 in
07:45 49.6 °F 43.4 °F 30.36 in SSE 6.0 mph 9.0 mph 79% 0.00 in
07:50 49.9 °F 44.0 °F 30.36 in ESE 8.0 mph 10.0 mph 80% 0.00 in
07:55 50.2 °F 44.3 °F 30.36 in SE 5.0 mph 11.0 mph 80% 0.00 in
08:00 50.6 °F 44.7 °F 30.36 in SE 11.0 mph 11.0 mph 80% 0.00 in
08:05 50.9 °F 45.0 °F 30.36 in ESE 10.0 mph 10.0 mph 80% 0.00 in
08:10 51.1 °F 45.2 °F 30.37 in SE 7.0 mph 10.0 mph 80% 0.00 in
08:15 51.4 °F 45.5 °F 30.37 in ESE 6.0 mph 10.0 mph 80% 0.00 in
08:20 51.7 °F 45.7 °F 30.37 in SE 7.0 mph 12.0 mph 80% 0.00 in
08:25 52.1 °F 46.1 °F 30.37 in SE 6.0 mph 12.0 mph 80% 0.00 in
08:30 52.3 °F 46.0 °F 30.37 in ESE 8.0 mph 15.0 mph 79% 0.00 in
08:35 52.6 °F 46.3 °F 30.37 in SE 9.0 mph 17.0 mph 79% 0.00 in
08:40 52.8 °F 46.8 °F 30.37 in SE 15.0 mph 17.0 mph 80% 0.00 in
08:45 52.9 °F 46.9 °F 30.37 in SE 11.0 mph 18.0 mph 80% 0.00 in
08:50 53.2 °F 47.2 °F 30.38 in SE 12.0 mph 12.0 mph 80% 0.00 in
08:55 53.8 °F 47.8 °F 30.38 in ESE 11.0 mph 15.0 mph 80% 0.00 in
09:00 54.0 °F 47.6 °F 30.38 in SE 12.0 mph 19.0 mph 79% 0.00 in
09:05 54.5 °F 48.1 °F 30.38 in SE 10.0 mph 16.0 mph 79% 0.00 in
09:10 55.1 °F 48.4 °F 30.38 in SE 12.0 mph 15.0 mph 78% 0.00 in
09:15 55.2 °F 48.5 °F 30.38 in South 7.0 mph 18.0 mph 78% 0.00 in
09:20 55.5 °F 48.4 °F 30.38 in SSE 10.0 mph 19.0 mph 77% 0.00 in
09:25 55.8 °F 49.0 °F 30.38 in SSE 12.0 mph 16.0 mph 78% 0.00 in
09:30 56.1 °F 49.3 °F 30.37 in SE 6.0 mph 18.0 mph 78% 0.00 in
09:35 56.6 °F 49.5 °F 30.38 in SE 14.0 mph 22.0 mph 77% 0.00 in
09:40 57.1 °F 49.6 °F 30.38 in South 15.0 mph 23.0 mph 76% 0.00 in
09:45 57.7 °F 50.5 °F 30.38 in SE 19.0 mph 23.0 mph 77% 0.00 in
09:46 57.8 °F 49.9 °F 30.38 in SE 15.0 mph 25.0 mph 75% 0.00 in
09:51 58.4 °F 50.5 °F 30.38 in SSE 12.0 mph 18.0 mph 75% 0.00 in
09:56 59.0 °F 51.1 °F 30.38 in SE 12.0 mph 20.0 mph 75% 0.00 in
10:01 59.1 °F 50.5 °F 30.37 in SSE 13.0 mph 18.0 mph 73% 0.00 in
10:07 59.3 °F 50.7 °F 30.37 in SSE 13.0 mph 20.0 mph 73% 0.00 in
10:12 59.1 °F 50.8 °F 30.37 in SE 18.0 mph 18.0 mph 74% 0.00 in
10:17 58.9 °F 50.6 °F 30.37 in SSE 14.0 mph 25.0 mph 74% 0.00 in
10:22 58.9 °F 50.6 °F 30.37 in SSE 14.0 mph 21.0 mph 74% 0.00 in
10:27 58.9 °F 50.6 °F 30.38 in SSE 14.0 mph 22.0 mph 74% 0.00 in
10:32 58.8 °F 50.5 °F 30.38 in SE 12.0 mph 22.0 mph 74% 0.00 in
10:37 59.0 °F 50.7 °F 30.38 in SE 14.0 mph 18.0 mph 74% 0.00 in
10:42 59.3 °F 51.0 °F 30.37 in SE 10.0 mph 19.0 mph 74% 0.00 in
10:47 59.5 °F 50.8 °F 30.37 in SE 16.0 mph 20.0 mph 73% 0.00 in
10:52 59.7 °F 51.0 °F 30.37 in ESE 16.0 mph 16.0 mph 73% 0.00 in
10:57 59.9 °F 50.9 °F 30.37 in SE 16.0 mph 20.0 mph 72% 0.00 in
11:02 60.3 °F 51.2 °F 30.37 in SE 12.0 mph 16.0 mph 72% 0.00 in
11:07 60.5 °F 51.1 °F 30.38 in SSE 18.0 mph 18.0 mph 71% 0.00 in
11:12 60.5 °F 51.1 °F 30.38 in South 13.0 mph 17.0 mph 71% 0.00 in
11:17 60.6 °F 50.8 °F 30.37 in SE 18.0 mph 18.0 mph 70% 0.00 in
11:22 61.1 °F 51.2 °F 30.37 in SE 9.0 mph 16.0 mph 70% 0.00 in
11:27 61.6 °F 51.3 °F 30.37 in SE 17.0 mph 19.0 mph 69% 0.00 in
11:32 62.0 °F 51.3 °F 30.36 in SE 11.0 mph 20.0 mph 68% 0.00 in
11:37 62.9 °F 51.8 °F 30.36 in SE 13.0 mph 16.0 mph 67% 0.00 in
11:42 63.2 °F 51.7 °F 30.36 in ESE 10.0 mph 19.0 mph 66% 0.00 in
11:47 63.2 °F 51.7 °F 30.36 in ESE 12.0 mph 20.0 mph 66% 0.00 in
11:52 63.3 °F 52.2 °F 30.35 in South 12.0 mph 16.0 mph 67% 0.00 in
11:57 63.8 °F 52.2 °F 30.35 in SE 9.0 mph 19.0 mph 66% 0.00 in
12:02 64.1 °F 52.5 °F 30.35 in SE 10.0 mph 16.0 mph 66% 0.00 in
12:07 63.4 °F 51.4 °F 30.34 in SSE 11.0 mph 21.0 mph 65% 0.00 in
12:13 63.9 °F 51.9 °F 30.34 in South 16.0 mph 20.0 mph 65% 0.00 in
12:18 63.8 °F 51.8 °F 30.34 in SE 13.0 mph 21.0 mph 65% 0.00 in
12:23 63.6 °F 51.6 °F 30.34 in SE 14.0 mph 20.0 mph 65% 0.00 in
12:28 63.5 °F 52.0 °F 30.34 in SSE 12.0 mph 13.0 mph 66% 0.00 in
12:33 63.8 °F 52.2 °F 30.34 in SSW 5.0 mph 12.0 mph 66% 0.00 in
12:38 64.5 °F 52.1 °F 30.33 in SSE 16.0 mph 19.0 mph 64% 0.00 in
12:43 64.7 °F 52.7 °F 30.33 in SE 11.0 mph 15.0 mph 65% 0.00 in
12:48 64.7 °F 52.3 °F 30.33 in SE 15.0 mph 15.0 mph 64% 0.00 in
12:53 65.2 °F 53.2 °F 30.33 in SSE 10.0 mph 17.0 mph 65% 0.00 in
12:58 65.3 °F 52.8 °F 30.33 in SE 12.0 mph 19.0 mph 64% 0.00 in
13:03 65.5 °F 53.0 °F 30.33 in South 10.0 mph 14.0 mph 64% 0.00 in
13:08 65.4 °F 52.9 °F 30.32 in SSE 16.0 mph 16.0 mph 64% 0.00 in
13:13 65.8 °F 52.9 °F 30.32 in South 11.0 mph 20.0 mph 63% 0.00 in
13:18 65.7 °F 52.8 °F 30.31 in SE 11.0 mph 16.0 mph 63% 0.00 in
13:23 65.8 °F 53.3 °F 30.31 in SSE 10.0 mph 15.0 mph 64% 0.00 in
13:28 65.9 °F 53.0 °F 30.30 in SSE 10.0 mph 17.0 mph 63% 0.00 in
13:33 66.3 °F 52.9 °F 30.30 in SSE 13.0 mph 17.0 mph 62% 0.00 in
13:38 66.4 °F 53.4 °F 30.30 in SE 17.0 mph 19.0 mph 63% 0.00 in
13:43 66.4 °F 53.0 °F 30.29 in ESE 14.0 mph 18.0 mph 62% 0.00 in
13:48 65.9 °F 53.0 °F 30.29 in ESE 16.0 mph 21.0 mph 63% 0.00 in
13:53 65.8 °F 53.3 °F 30.28 in SE 14.0 mph 19.0 mph 64% 0.00 in
13:58 66.0 °F 53.1 °F 30.28 in South 14.0 mph 14.0 mph 63% 0.00 in
14:03 66.2 °F 53.2 °F 30.28 in SSE 16.0 mph 18.0 mph 63% 0.00 in
14:08 66.7 °F 53.7 °F 30.27 in SSE 11.0 mph 16.0 mph 63% 0.00 in
14:13 67.1 °F 53.2 °F 30.26 in ESE 13.0 mph 17.0 mph 61% 0.00 in
14:18 67.7 °F 54.7 °F 30.26 in SSE 12.0 mph 20.0 mph 63% 0.00 in
14:23 68.3 °F 54.3 °F 30.26 in SE 18.0 mph 22.0 mph 61% 0.00 in
14:28 68.1 °F 53.7 °F 30.26 in SSE 9.0 mph 15.0 mph 60% 0.00 in
14:33 68.2 °F 53.3 °F 30.26 in SSE 17.0 mph 24.0 mph 59% 0.00 in
14:39 67.9 °F 53.5 °F 30.26 in SE 13.0 mph 18.0 mph 60% 0.00 in
14:44 67.9 °F 54.4 °F 30.25 in SE 12.0 mph 16.0 mph 62% 0.00 in
14:49 68.9 °F 54.5 °F 30.25 in SE 13.0 mph 14.0 mph 60% 0.00 in
14:54 69.0 °F 53.6 °F 30.25 in SE 13.0 mph 17.0 mph 58% 0.00 in
14:59 69.0 °F 54.1 °F 30.24 in SE 15.0 mph 15.0 mph 59% 0.00 in
15:04 68.9 °F 53.5 °F 30.24 in SE 11.0 mph 17.0 mph 58% 0.00 in
15:09 68.9 °F 53.5 °F 30.23 in SE 11.0 mph 17.0 mph 58% 0.00 in
15:14 68.5 °F 53.2 °F 30.24 in SSE 17.0 mph 17.0 mph 58% 0.00 in
15:19 68.8 °F 54.4 °F 30.24 in SSE 21.0 mph 21.0 mph 60% 0.00 in
15:24 68.6 °F 52.8 °F 30.23 in SE 12.0 mph 20.0 mph 57% 0.00 in
15:29 68.5 °F 53.2 °F 30.23 in SSE 12.0 mph 20.0 mph 58% 0.00 in
15:34 68.8 °F 53.0 °F 30.22 in SSE 16.0 mph 18.0 mph 57% 0.00 in
15:39 68.6 °F 52.8 °F 30.22 in South 9.0 mph 20.0 mph 57% 0.00 in
15:44 68.4 °F 53.1 °F 30.22 in SE 10.0 mph 17.0 mph 58% 0.00 in
15:49 68.5 °F 53.2 °F 30.22 in SE 8.0 mph 17.0 mph 58% 0.00 in
15:54 68.5 °F 53.6 °F 30.22 in SSE 8.0 mph 16.0 mph 59% 0.00 in
15:59 69.0 °F 53.6 °F 30.22 in SSE 11.0 mph 17.0 mph 58% 0.00 in
16:04 68.6 °F 52.8 °F 30.22 in SE 11.0 mph 25.0 mph 57% 0.00 in
16:09 68.5 °F 52.7 °F 30.22 in SSE 12.0 mph 20.0 mph 57% 0.00 in
16:14 68.5 °F 53.2 °F 30.22 in SE 11.0 mph 16.0 mph 58% 0.00 in
16:19 68.2 °F 52.4 °F 30.23 in SE 13.0 mph 15.0 mph 57% 0.00 in
16:25 68.1 °F 52.8 °F 30.22 in SSE 7.0 mph 19.0 mph 58% 0.00 in
16:30 68.1 °F 52.3 °F 30.22 in SE 19.0 mph 19.0 mph 57% 0.00 in
16:35 68.2 °F 52.4 °F 30.22 in SE 13.0 mph 14.0 mph 57% 0.00 in
16:40 68.4 °F 52.6 °F 30.21 in SE 15.0 mph 15.0 mph 57% 0.00 in
16:45 68.3 °F 52.5 °F 30.21 in SSE 14.0 mph 19.0 mph 57% 0.00 in
16:50 68.3 °F 52.5 °F 30.21 in SE 11.0 mph 17.0 mph 57% 0.00 in
16:55 68.6 °F 53.2 °F 30.21 in SSE 12.0 mph 12.0 mph 58% 0.00 in
17:00 68.4 °F 52.1 °F 30.21 in SE 11.0 mph 20.0 mph 56% 0.00 in
17:05 68.3 °F 52.5 °F 30.21 in SE 16.0 mph 17.0 mph 57% 0.00 in
17:10 68.6 °F 52.8 °F 30.21 in SE 9.0 mph 17.0 mph 57% 0.00 in
17:15 68.6 °F 52.3 °F 30.20 in South 8.0 mph 16.0 mph 56% 0.00 in
17:20 68.3 °F 52.5 °F 30.20 in SSE 11.0 mph 14.0 mph 57% 0.00 in
17:25 68.1 °F 52.8 °F 30.21 in SSE 8.0 mph 12.0 mph 58% 0.00 in
17:30 67.8 °F 52.0 °F 30.21 in SE 11.0 mph 19.0 mph 57% 0.00 in
17:35 67.9 °F 52.1 °F 30.21 in South 8.0 mph 19.0 mph 57% 0.00 in
17:40 67.7 °F 52.4 °F 30.21 in SSE 9.0 mph 16.0 mph 58% 0.00 in
17:45 67.7 °F 52.4 °F 30.21 in SE 9.0 mph 12.0 mph 58% 0.00 in
17:50 67.7 °F 52.4 °F 30.21 in SSE 13.0 mph 19.0 mph 58% 0.00 in
17:55 67.6 °F 52.3 °F 30.20 in SE 14.0 mph 15.0 mph 58% 0.00 in
18:02 67.7 °F 52.4 °F 30.20 in SSE 8.0 mph 11.0 mph 58% 0.00 in
18:07 67.7 °F 52.4 °F 30.20 in SE 14.0 mph 14.0 mph 58% 0.00 in
18:12 67.5 °F 52.2 °F 30.20 in SE 10.0 mph 17.0 mph 58% 0.00 in
18:17 67.3 °F 52.0 °F 30.20 in SE 11.0 mph 15.0 mph 58% 0.00 in
18:22 66.9 °F 52.1 °F 30.20 in SE 8.0 mph 13.0 mph 59% 0.00 in
18:27 66.7 °F 51.9 °F 30.20 in SE 8.0 mph 12.0 mph 59% 0.00 in
18:32 66.6 °F 51.8 °F 30.20 in ESE 9.0 mph 12.0 mph 59% 0.00 in
18:37 66.4 °F 52.1 °F 30.20 in SSE 5.0 mph 11.0 mph 60% 0.00 in
18:42 66.1 °F 51.8 °F 30.20 in ESE 9.0 mph 10.0 mph 60% 0.00 in
18:47 65.8 °F 52.0 °F 30.20 in SE 6.0 mph 9.0 mph 61% 0.00 in
18:52 65.5 °F 51.7 °F 30.20 in ESE 9.0 mph 9.0 mph 61% 0.00 in
18:57 65.4 °F 52.1 °F 30.20 in SE 4.0 mph 8.0 mph 62% 0.00 in
19:02 65.3 °F 52.0 °F 30.20 in SE 5.0 mph 8.0 mph 62% 0.00 in
19:07 65.5 °F 51.7 °F 30.20 in SE 8.0 mph 11.0 mph 61% 0.00 in
19:12 65.5 °F 51.7 °F 30.20 in SE 6.0 mph 10.0 mph 61% 0.00 in
19:17 65.6 °F 51.8 °F 30.20 in SE 7.0 mph 9.0 mph 61% 0.00 in
19:22 65.5 °F 51.7 °F 30.20 in SE 7.0 mph 11.0 mph 61% 0.00 in
19:27 65.4 °F 51.6 °F 30.20 in ESE 6.0 mph 9.0 mph 61% 0.00 in
19:32 65.2 °F 51.4 °F 30.20 in SE 5.0 mph 8.0 mph 61% 0.00 in
19:37 65.0 °F 51.2 °F 30.20 in SE 7.0 mph 9.0 mph 61% 0.00 in
19:42 64.8 °F 51.5 °F 30.20 in SSE 5.0 mph 9.0 mph 62% 0.00 in
19:48 64.4 °F 51.1 °F 30.20 in SSE 4.0 mph 8.0 mph 62% 0.00 in
19:53 64.3 °F 51.5 °F 30.20 in SSE 6.0 mph 9.0 mph 63% 0.00 in
19:58 64.0 °F 51.2 °F 30.21 in SE 4.0 mph 9.0 mph 63% 0.00 in
20:03 63.9 °F 51.1 °F 30.20 in SE 8.0 mph 11.0 mph 63% 0.00 in
20:08 63.8 °F 51.0 °F 30.20 in SE 6.0 mph 8.0 mph 63% 0.00 in
20:13 63.6 °F 51.2 °F 30.20 in SE 8.0 mph 8.0 mph 64% 0.00 in
20:18 63.4 °F 51.0 °F 30.20 in SE 7.0 mph 10.0 mph 64% 0.00 in
20:23 63.3 °F 50.9 °F 30.20 in ESE 11.0 mph 11.0 mph 64% 0.00 in
20:28 63.4 °F 51.0 °F 30.20 in ESE 10.0 mph 14.0 mph 64% 0.00 in
20:33 63.3 °F 50.9 °F 30.20 in SE 7.0 mph 10.0 mph 64% 0.00 in
20:38 63.4 °F 51.0 °F 30.20 in SE 8.0 mph 12.0 mph 64% 0.00 in
20:43 63.5 °F 51.1 °F 30.20 in SSE 5.0 mph 8.0 mph 64% 0.00 in
20:48 63.4 °F 51.0 °F 30.20 in SE 14.0 mph 14.0 mph 64% 0.00 in
20:53 63.5 °F 51.1 °F 30.20 in SE 5.0 mph 11.0 mph 64% 0.00 in
20:58 63.3 °F 50.9 °F 30.20 in SE 8.0 mph 11.0 mph 64% 0.00 in
21:03 63.1 °F 51.2 °F 30.20 in SSE 7.0 mph 10.0 mph 65% 0.00 in
21:08 62.9 °F 51.0 °F 30.20 in SE 7.0 mph 7.0 mph 65% 0.00 in
21:13 62.7 °F 51.2 °F 30.20 in SSE 4.0 mph 7.0 mph 66% 0.00 in
21:18 62.6 °F 51.1 °F 30.20 in SE 5.0 mph 8.0 mph 66% 0.00 in
21:23 62.6 °F 51.1 °F 30.20 in SE 6.0 mph 12.0 mph 66% 0.00 in
21:28 62.5 °F 51.0 °F 30.20 in SE 8.0 mph 8.0 mph 66% 0.00 in
21:33 62.3 °F 50.8 °F 30.20 in ESE 11.0 mph 11.0 mph 66% 0.00 in
21:38 62.3 °F 50.8 °F 30.20 in SE 6.0 mph 11.0 mph 66% 0.00 in
21:43 62.3 °F 50.8 °F 30.20 in SSE 7.0 mph 11.0 mph 66% 0.00 in
21:48 62.0 °F 50.9 °F 30.20 in SE 8.0 mph 9.0 mph 67% 0.00 in
21:53 61.8 °F 50.7 °F 30.20 in SE 5.0 mph 9.0 mph 67% 0.00 in
21:59 61.8 °F 50.7 °F 30.20 in SE 9.0 mph 11.0 mph 67% 0.00 in
22:03 62.1 °F 51.0 °F 30.20 in SE 7.0 mph 12.0 mph 67% 0.00 in
22:08 61.9 °F 50.8 °F 30.20 in SE 7.0 mph 13.0 mph 67% 0.00 in
22:13 61.8 °F 50.7 °F 30.20 in SE 4.0 mph 12.0 mph 67% 0.00 in
22:18 61.8 °F 51.1 °F 30.20 in SE 11.0 mph 11.0 mph 68% 0.00 in
22:23 62.0 °F 50.9 °F 30.20 in SE 7.0 mph 10.0 mph 67% 0.00 in
22:29 62.1 °F 51.0 °F 30.20 in SE 9.0 mph 11.0 mph 67% 0.00 in
22:34 62.1 °F 51.0 °F 30.21 in SSE 6.0 mph 12.0 mph 67% 0.00 in
22:39 62.2 °F 51.1 °F 30.21 in SSE 7.0 mph 12.0 mph 67% 0.00 in
22:44 62.3 °F 51.2 °F 30.20 in South 13.0 mph 13.0 mph 67% 0.00 in
22:49 62.5 °F 51.4 °F 30.20 in SE 7.0 mph 13.0 mph 67% 0.00 in
22:54 62.6 °F 51.1 °F 30.21 in SSE 8.0 mph 14.0 mph 66% 0.00 in
22:59 62.7 °F 51.2 °F 30.21 in South 12.0 mph 13.0 mph 66% 0.00 in
23:04 62.7 °F 51.2 °F 30.21 in SE 6.0 mph 12.0 mph 66% 0.00 in
23:09 62.7 °F 51.2 °F 30.21 in SE 8.0 mph 12.0 mph 66% 0.00 in
23:14 62.6 °F 51.1 °F 30.21 in SSE 9.0 mph 12.0 mph 66% 0.00 in
23:19 62.7 °F 51.2 °F 30.21 in ESE 7.0 mph 13.0 mph 66% 0.00 in
23:24 62.7 °F 51.2 °F 30.21 in SSE 11.0 mph 12.0 mph 66% 0.00 in
23:29 62.6 °F 51.1 °F 30.21 in ESE 7.0 mph 13.0 mph 66% 0.00 in
23:34 62.6 °F 51.1 °F 30.21 in SE 9.0 mph 13.0 mph 66% 0.00 in
23:39 62.6 °F 51.1 °F 30.22 in SE 9.0 mph 11.0 mph 66% 0.00 in
23:44 62.6 °F 51.1 °F 30.21 in SE 8.0 mph 10.0 mph 66% 0.00 in
23:49 62.5 °F 51.4 °F 30.21 in SE 7.0 mph 10.0 mph 67% 0.00 in
23:54 62.3 °F 51.2 °F 30.21 in SE 7.0 mph 9.0 mph 67% 0.00 in
23:59 62.2 °F 51.1 °F 30.21 in South 6.0 mph 11.0 mph 67% 0.00 in
Compliments of Weather Underground